[[{"header":{"parameterUnit":"m.s-1","parameterCategory":1,"la1":30.2992,"la2":30.254,"lo1":-89.0895,"lo2":-89.0443,"dy":0.0025,"dx":0.0025,"nx":19,"ny":19,"refTime":"2026-03-30T09:00:00:Z","depth":0,"parameterNumber":2,"parameterNumberName":"U-component_of_WINDS"},"data":[0,0,0,-5.5638,-5.564,-5.568,-5.568,-5.5789,-5.5791,0,0,0,0,0,0,0,0,0,0,0,-5.5661,-5.5662,-5.5638,-5.564,-5.568,-5.568,-5.5789,-5.5791,0,0,0,0,0,0,0,0,0,0,0,-5.566,-5.5662,-5.5664,-5.5641,-5.568,-5.568,-5.5788,-5.5738,0,0,0,0,0,0,0,0,0,0,-5.5689,-5.5742,-5.5661,-5.5664,-5.5641,-5.568,-5.568,-5.5735,-5.5741,-5.5796,0,-5.5852,0,-5.5823,-5.5801,-5.5802,0,0,0,-5.5615,-5.5737,-5.5717,-5.5665,-5.5642,-5.568,-5.5655,-5.5738,-5.5745,-5.5805,-5.5853,-5.5855,-5.5825,-5.5803,-5.5803,-5.6198,-5.6201,0,0,-5.5613,-5.5686,-5.5712,-5.5724,-5.572,-5.5654,-5.5657,-5.5741,-5.5799,-5.5853,-5.5857,-5.5827,-5.5804,-5.5805,-5.6195,-5.6199,0,0,0,-5.5624,-5.5686,-5.5662,-5.5721,-5.5724,-5.5656,-5.5659,-5.5795,-5.5781,-5.5857,-5.5828,-5.5805,-5.5807,-5.6192,-5.6197,-5.6417,0,0,0,-5.5621,-5.5692,-5.5663,-5.5708,-5.5723,-5.576,-5.5712,-5.5776,-5.5783,-5.5828,-5.5805,-5.5808,-5.6188,-5.6194,-5.6404,-5.6509,0,0,0,-5.5646,-5.5694,-5.5711,-5.5712,-5.5731,-5.5756,-5.5747,-5.5775,-5.5766,-5.5802,-5.5809,-5.6186,-5.6193,-5.6392,-5.6489,-5.6636,0,0,0,-5.5695,-5.5907,-5.5716,-5.5942,-5.5732,-5.5892,-5.5745,-5.5861,-5.5918,-5.5805,-5.6189,-5.6196,-5.6388,-5.6477,-5.6623,-5.6772,-5.6841,0,0,-5.6003,-5.5947,-5.6073,-5.5904,-5.6117,-5.588,-5.6126,-5.6109,-5.6046,-5.6152,-5.616,-5.6408,-5.6488,-5.6633,-5.7198,-5.7253,0,0,0,-5.6196,-5.6289,-5.6329,-5.6386,-5.6378,-5.6381,-5.6318,-5.6312,-5.6398,-5.6115,-5.6497,-5.6543,-5.6625,-5.6693,-5.6739,-5.6806,-5.623,-5.6229,-5.6229,-5.6739,-5.6646,-5.685,-5.6763,-5.6821,-5.6755,-5.6794,-5.6774,-5.6664,-5.6757,-5.6788,-5.7141,-5.7224,-5.7258,-5.7329,-5.6858,-5.6858,-5.6859,-5.686,-5.7183,-5.7299,-5.7148,-5.7292,-5.7194,-5.7314,-5.7259,-5.7178,-5.7276,-5.711,-5.7178,-5.7005,-5.7322,-5.7378,-5.6875,-5.6873,-5.6871,-5.6869,-5.6868,-5.7529,-5.7568,-5.7557,-5.7631,-5.7699,-5.7603,-5.7705,-5.7611,-5.7524,-5.7591,-5.7615,-5.7611,-5.7596,-5.7609,-5.761,-5.7611,-5.7612,-5.7613,-5.7614,-5.7892,-5.7872,-5.7968,-5.7979,-5.8004,-5.8025,-5.7962,-5.7984,-5.7986,-5.791,-5.7909,-5.7792,-5.7369,-5.7266,-5.7633,-5.7629,-5.7627,-5.7625,-5.7624,-5.8379,-5.8254,-5.8404,-5.8429,-5.8433,-5.8509,-5.8387,-5.8442,-5.8447,-5.8501,-5.8369,-5.8071,-5.8007,-5.7969,-5.7883,-5.8387,-5.8387,-5.8387,-5.8387,-5.8671,-5.8629,-5.8761,-5.8808,-5.8844,-5.875,-5.8925,-5.8879,-5.8811,-5.881,-5.8723,-5.86,-5.8565,-5.8521,-5.8472,-5.839,-5.9012,-5.9012,-5.9013,-5.8966,-5.8923,-5.9089,-5.902,-5.9017,-5.9017,-5.9179,-5.9241,-5.9139,-5.9036,-5.8806,-5.878,-5.858,-5.852,-5.8414,-5.8339,-5.8186,0,0]},{"header":{"parameterUnit":"m.s-1","parameterCategory":1,"la1":30.2992,"la2":30.254,"lo1":-89.0895,"lo2":-89.0443,"dy":0.0025,"dx":0.0025,"nx":19,"ny":19,"refTime":"2026-03-30T09:00:00:Z","depth":0,"parameterNumber":3,"parameterNumberName":"V-component_of_WINDS"},"data":[0,0,0,-0.888,-0.8881,-0.8913,-0.8914,-0.894,-0.894,0,0,0,0,0,0,0,0,0,0,0,-0.8864,-0.8864,-0.888,-0.8881,-0.8913,-0.8914,-0.894,-0.894,0,0,0,0,0,0,0,0,0,0,0,-0.8864,-0.8864,-0.8863,-0.8881,-0.8913,-0.8914,-0.894,-0.892,0,0,0,0,0,0,0,0,0,0,-0.8891,-0.8869,-0.8864,-0.8863,-0.8881,-0.8913,-0.8914,-0.8919,-0.8921,-0.8919,0,-0.8917,0,-0.8929,-0.8941,-0.8941,0,0,0,-0.8886,-0.8867,-0.8883,-0.8863,-0.8881,-0.8913,-0.89,-0.8921,-0.8923,-0.8921,-0.8917,-0.8919,-0.8929,-0.8941,-0.8941,-0.8913,-0.8912,0,0,-0.8884,-0.8865,-0.8881,-0.8884,-0.888,-0.8899,-0.8901,-0.8922,-0.8916,-0.8917,-0.8919,-0.8929,-0.8941,-0.8941,-0.8913,-0.8913,0,0,0,-0.8876,-0.8864,-0.8879,-0.8882,-0.8889,-0.89,-0.8902,-0.8915,-0.8921,-0.892,-0.893,-0.8941,-0.8941,-0.8914,-0.8913,-0.8875,0,0,0,-0.8875,-0.8859,-0.8878,-0.8866,-0.8889,-0.8903,-0.8894,-0.892,-0.8923,-0.893,-0.8941,-0.8941,-0.8914,-0.8913,-0.8877,-0.8859,0,0,0,-0.8864,-0.8858,-0.886,-0.8865,-0.8879,-0.8903,-0.8911,-0.8921,-0.8929,-0.8941,-0.8941,-0.8915,-0.8914,-0.8879,-0.8863,-0.8844,0,0,0,-0.8846,-0.8827,-0.8859,-0.8841,-0.8878,-0.888,-0.8911,-0.8914,-0.892,-0.8941,-0.8914,-0.8913,-0.8879,-0.8864,-0.8846,-0.8824,-0.8814,0,0,-0.8811,-0.8822,-0.8813,-0.8842,-0.8834,-0.8877,-0.8862,-0.8886,-0.8904,-0.8908,-0.8908,-0.8876,-0.8863,-0.8845,-0.8767,-0.8759,0,0,0,-0.8795,-0.8787,-0.8789,-0.8794,-0.8812,-0.8825,-0.8853,-0.8861,-0.8865,-0.8903,-0.8867,-0.8859,-0.885,-0.884,-0.8833,-0.8824,-0.8909,-0.8909,-0.8909,-0.8716,-0.8741,-0.8726,-0.8753,-0.8758,-0.8786,-0.879,-0.8806,-0.883,-0.8821,-0.8822,-0.8772,-0.876,-0.8755,-0.8745,-0.8814,-0.8814,-0.8814,-0.8814,-0.8664,-0.8656,-0.8688,-0.8684,-0.8709,-0.8706,-0.8732,-0.8748,-0.8747,-0.8774,-0.8767,-0.8791,-0.8745,-0.8737,-0.8811,-0.8812,-0.8812,-0.8812,-0.8813,-0.8613,-0.8613,-0.8624,-0.8632,-0.8635,-0.8664,-0.8661,-0.8685,-0.8707,-0.87,-0.8701,-0.8701,-0.8702,-0.8699,-0.8699,-0.8699,-0.8698,-0.8698,-0.8698,-0.8554,-0.8568,-0.8563,-0.8579,-0.8583,-0.8593,-0.862,-0.8625,-0.8636,-0.8653,-0.8653,-0.8675,-0.8737,-0.875,-0.8696,-0.8696,-0.8696,-0.8697,-0.8697,-0.8487,-0.8506,-0.8498,-0.8503,-0.8522,-0.8521,-0.8552,-0.856,-0.8567,-0.8564,-0.8589,-0.8631,-0.8644,-0.865,-0.866,-0.8586,-0.8586,-0.8586,-0.8586,-0.8442,-0.8451,-0.8447,-0.8452,-0.8461,-0.8487,-0.8474,-0.8494,-0.8517,-0.8523,-0.8538,-0.8555,-0.856,-0.8569,-0.8577,-0.8587,-0.8495,-0.8495,-0.8495,-0.84,-0.8411,-0.8396,-0.842,-0.8436,-0.8449,-0.8436,-0.8439,-0.847,-0.8492,-0.8527,-0.853,-0.8559,-0.8568,-0.8588,-0.8599,-0.8618,0,0]}]]